Location: Bremen
(53.0796°N, 8.8241°E)
Time: 14:56:02
(UTC+02:00)

ISS - Pass Details

Date: 07 January 2018
Orbit: 402 x 408 km, 51.6° (Epoch: 20 July)

Event Time Altitude Azimuth Distance (km) Brightness Sun altitude
Exits shadow 06:12:15 69° 172° (S) 452 -3.7 -20.5°
Drops below altitude 10° 06:15:32 10° 100° (E) 1,502 0.3 -20.0°
Enters shadow 07:09:07 -73° 289° (WNW) 12,636 3.7 -12.2°
